Flag for United Kingdom Weather past 2 weeks in Bradford, England, United Kingdom

Now
54 °F

Light rain. Broken clouds.


Feels Like: 48 °F
Forecast: 38 / 52 °F
Wind: 21 mph from Southwest

Location: Leeds And Bradford

Current Time: Mar 28, 2015 at 1:12:10 PM

Latest Report: Mar 28, 2015 at 12:50 PM


Visibility: N/A

Pressure: 29.53 "Hg

Humidity: 88%

Dew point: 50 °F

Location of BradfordLocation

Historic Weather in Bradford — Graph

°F

Bradford temperature yesterday

Maximum temperature yesterday: 46 °F (at 10:50 AM)
Minimum temperature yesterday: 36 °F (at 2:20 AM)
Average temperature yesterday: 42 °F

Past Weeks' High & Low Weather Summary

 TemperatureHumidityPressure
High52 °F (Mar 20, 12:20 PM)100% (Mar 13, 11:50 AM)30.57 "Hg (Mar 13, 11:50 AM)
Low30 °F (Mar 18, 6:20 AM)54% (Mar 22, 1:50 PM)29.39 "Hg (Mar 26, 7:20 AM)
Average40 °F86%30.17 "Hg
* Reported Mar 13 11:20 AM — Mar 28 11:50 AM, Bradford, Weather by CustomWeather, © 2015

Note: Actual official high and low records may vary slightly from our data, if they occured in-between our weather recording intervals... More about our weather records

Advertising

Bradford weather history for previous 24 hours

 ConditionsComfort  
Time TempWeatherWind HumidityBarometerVisibility
11:50 AM
Sat, Mar 28
50 °FLight rain. Broken clouds.18 mph100%29.56 "HgN/A
11:20 AM50 °FLight rain. Broken clouds.21 mph100%29.56 "HgN/A
10:50 AM52 °FLight rain. Broken clouds.20 mph94%29.56 "HgN/A
10:20 AM50 °FLight rain. Broken clouds.20 mph100%29.56 "HgN/A
9:50 AM50 °FLight rain. Broken clouds.18 mph100%29.59 "HgN/A
9:20 AM50 °FLight rain. Broken clouds.14 mph100%29.59 "HgN/A
8:50 AM50 °FLight rain. Broken clouds.16 mph94%29.59 "HgN/A
8:20 AM50 °FLight rain. Broken clouds.17 mph94%29.59 "HgN/A
7:50 AM48 °FBroken clouds.15 mph94%29.62 "HgN/A
7:20 AM48 °FLight rain. Broken clouds.10 mph94%29.65 "HgN/A
6:50 AM45 °FBroken clouds.6 mph93%29.68 "HgN/A
6:20 AM43 °FPartly sunny.7 mph100%29.71 "HgN/A
5:50 AM43 °FPartly sunny.8 mph100%29.74 "HgN/A
5:20 AM41 °FPassing clouds.10 mph100%29.77 "HgN/A
4:50 AM41 °FPassing clouds.8 mph93%29.80 "HgN/A
4:20 AM41 °FPassing clouds.9 mph93%29.80 "HgN/A
3:20 AM41 °FPassing clouds.12 mph87%29.86 "HgN/A
2:50 AM41 °FPassing clouds.12 mph81%29.89 "HgN/A
2:20 AM41 °FPassing clouds.13 mph81%29.89 "HgN/A
1:50 AM41 °FPassing clouds.7 mph81%29.92 "HgN/A
1:20 AM41 °FPartly cloudy.7 mph76%29.95 "HgN/A
12:50 AM39 °FPassing clouds.7 mph81%29.98 "HgN/A
12:20 AM41 °FPassing clouds.6 mph76%29.98 "HgN/A
11:50 PM
Fri, Mar 27
41 °FPassing clouds.3 mph76%30.01 "HgN/A
11:20 PM39 °FPassing clouds.3 mph81%30.01 "HgN/A
10:50 PM41 °FPassing clouds.5 mph76%30.04 "HgN/A
10:20 PM41 °FPassing clouds.2 mph76%30.04 "HgN/A
9:50 PM41 °FPassing clouds.2 mph70%30.04 "HgN/A
9:20 PM41 °FPassing clouds.No wind70%30.07 "HgN/A
8:50 PM41 °FPassing clouds.No wind76%30.07 "HgN/A
8:20 PM41 °FPassing clouds.No wind76%30.07 "HgN/A
7:50 PM43 °FPassing clouds.No wind71%30.07 "HgN/A
7:20 PM43 °FPassing clouds.1 mph71%30.07 "HgN/A
6:50 PM43 °FPassing clouds.3 mph66%30.07 "HgN/A
6:20 PM43 °FPassing clouds.5 mph66%30.07 "HgN/A
5:50 PM45 °FPassing clouds.8 mph61%30.04 "HgN/A
5:20 PM46 °FPassing clouds.8 mph57%30.04 "HgN/A
4:50 PM46 °FScattered clouds.8 mph57%30.04 "HgN/A
4:20 PM46 °FScattered clouds.12 mph57%30.07 "HgN/A
3:50 PM46 °FScattered clouds.12 mph57%30.07 "HgN/A
3:20 PM46 °FScattered clouds.12 mph57%30.07 "HgN/A
2:50 PM46 °FScattered clouds.13 mph57%30.07 "HgN/A
2:20 PM46 °FScattered clouds.10 mph62%30.07 "HgN/A
1:50 PM46 °FScattered clouds.14 mph57%30.04 "HgN/A
1:20 PM45 °FScattered clouds.10 mph61%30.04 "HgN/A
Weather by CustomWeather, © 2015

See weather overviewHow to use our weather pages